Elko, NV

4:28 AM PST on February 19, 2017 (GMT -0800)
Elko Regional

Weather History for KEKO - October, 2012

Change the Weather History Date:

Tuesday, October 23, 2012

  Actual Average Record
Temperature  
Mean Temperature 34 °F 44 °F  
Max Temperature 39 °F 61 °F 77 °F (1937)
Min Temperature 28 °F 27 °F 8 °F (1895)
Degree Days  
Heating Degree Days 31 21  
Month to date heating degree days 310 389  
Since 1 July heating degree days 385 647  
Cooling Degree Days 0 0  
Month to date cooling degree days 0 0  
Year to date cooling degree days 682 383  
Moisture  
Dew Point 30 °F    
Average Humidity 78    
Maximum Humidity 92    
Minimum Humidity 64    
Precipitation  
Precipitation T in 0.02 in 0.50 in (1897)
Month to date precipitation 0.17 0.51  
Year to date precipitation 5.16 7.36  
Snow  
Snow T in 0.00 in 0.20 in (1956)
Month to date snowfall T 0.3  
Since 1 July snowfall T 0.4  
Since 1 September snowfall T 0.4  
Snow Depth 0.00 in    
Sea Level Pressure  
Sea Level Pressure 29.93 in    
Wind  
Wind Speed 3 mph (SW)    
Max Wind Speed 22 mph    
Max Gust Speed 26 mph    
Visibility 9 miles    
Events Snow    
T = Trace of Precipitation, MM = Missing Value Source: NWS Daily Summary

Daily Weather History Graph

Daily Weather History Graph

Search for Another Location

Airport or City:

Trip Planner

Search our weather history database for the weather conditions in past years. The results will help you decide how hot, cold, wet, or windy it might be!

Date:

Astronomy

Oct. 23, 2012 Rise Set
Actual Time 7:03 AM PDT 5:50 PM PDT
Civil Twilight 6:35 AM PDT 6:18 PM PDT
Nautical Twilight 6:03 AM PDT 6:50 PM PDT
Astronomical Twilight 5:32 AM PDT 7:21 PM PDT
Moon 2:38 PM PDT (10/23) 12:58 AM PDT (10/23)
Length of Visible Light 11h 42m
Length of Day
10h 46m
Waxing Gibbous, 67% of the Moon is Illuminated
Oct 23
Waxing Gibbous
Oct 29
Full
Nov 6
Last Quarter
Nov 13
New
Nov 20
First Quarter

Hourly Weather History & Observations

Time (PDT) Temp. Windchill Dew Point Humidity Pressure Visibility Wind Dir Wind Speed Gust Speed Precip Events Conditions
12:56 AM 36.0 °F 30.3 °F 33.1 °F 89% 29.76 in 10.0 mi SSW 6.9 mph - 0.01 in   Overcast
1:56 AM 37.0 °F 33.3 °F 33.1 °F 86% 29.76 in 10.0 mi West 4.6 mph - N/A   Overcast
2:56 AM 36.0 °F 33.3 °F 30.9 °F 82% 29.78 in 10.0 mi SE 3.5 mph - N/A   Overcast
3:56 AM 34.0 °F - 28.9 °F 82% 29.78 in 10.0 mi Calm Calm - N/A   Clear
4:56 AM 34.0 °F - 28.0 °F 79% 29.78 in 10.0 mi Calm Calm - N/A   Mostly Cloudy
5:56 AM 34.0 °F - 28.9 °F 82% 29.81 in 10.0 mi Calm Calm - N/A   Scattered Clouds
8:56 AM 34.0 °F 24.2 °F 28.9 °F 82% 29.93 in 6.0 mi West 15.0 mph 21.9 mph 0.00 in Snow Light Snow
9:56 AM 33.1 °F 27.7 °F 30.0 °F 89% 29.97 in 4.0 mi SSW 5.8 mph - 0.00 in Snow Light Snow
10:13 AM 33.8 °F - 30.2 °F 87% 29.95 in 4.0 mi Calm Calm - 0.00 in Snow Light Snow
10:53 AM 33.8 °F 26.4 °F 28.4 °F 81% 29.95 in 5.0 mi WSW 9.2 mph - 0.00 in Snow Light Snow
10:56 AM 35.1 °F 28.6 °F 30.0 °F 82% 29.97 in 5.0 mi SW 8.1 mph - 0.00 in Snow Light Snow
11:15 AM 35.6 °F 30.7 °F 30.2 °F 81% 29.96 in 6.0 mi SSW 5.8 mph - 0.00 in Snow Light Snow
11:46 AM 35.6 °F 30.7 °F 30.2 °F 81% 29.96 in 10.0 mi SSW 5.8 mph - 0.00 in   Overcast
11:56 AM 36.0 °F 30.3 °F 28.9 °F 76% 29.99 in 10.0 mi South 6.9 mph - 0.00 in   Overcast
12:45 PM 37.4 °F 32.8 °F 30.2 °F 75% 29.95 in 10.0 mi SW 5.8 mph - 0.00 in   Overcast
12:56 PM 37.9 °F 34.4 °F 30.9 °F 76% 29.97 in 8.0 mi NW 4.6 mph - 0.00 in Snow Light Snow
1:15 PM 37.4 °F 33.8 °F 30.2 °F 75% 29.95 in 10.0 mi NW 4.6 mph - 0.00 in   Overcast
1:56 PM 37.9 °F 33.5 °F 30.0 °F 73% 29.96 in 10.0 mi West 5.8 mph - 0.00 in   Overcast
2:56 PM 37.9 °F 32.7 °F 30.0 °F 73% 29.97 in 10.0 mi Variable 6.9 mph - 0.00 in   Overcast
3:26 PM 37.4 °F - 30.2 °F 75% 29.94 in 10.0 mi Calm Calm - 0.00 in   Overcast
3:34 PM 39.2 °F 37.0 °F 30.2 °F 70% 29.95 in 10.0 mi ENE 3.5 mph - 0.00 in   Overcast
3:56 PM 39.0 °F - 28.9 °F 67% 29.97 in 10.0 mi Calm Calm - 0.00 in   Overcast
4:56 PM 39.0 °F 36.8 °F 30.0 °F 70% 29.97 in 10.0 mi SE 3.5 mph - N/A   Overcast
5:14 PM 37.4 °F - 28.4 °F 70% 29.95 in 10.0 mi Calm Calm - N/A   Scattered Clouds
5:56 PM 36.0 °F 32.1 °F 28.9 °F 76% 29.98 in 10.0 mi ESE 4.6 mph - N/A   Partly Cloudy
6:56 PM 35.1 °F - 28.9 °F 78% 29.98 in 10.0 mi Calm Calm - N/A   Mostly Cloudy
7:56 PM 33.1 °F - 28.9 °F 85% 29.99 in 10.0 mi Calm Calm - N/A   Overcast
8:56 PM 33.1 °F - 28.9 °F 85% 29.99 in 10.0 mi Calm Calm - N/A   Mostly Cloudy
9:56 PM 32.0 °F - 28.9 °F 88% 30.00 in 10.0 mi Calm Calm - N/A   Overcast
10:56 PM 32.0 °F - 28.9 °F 88% 29.99 in 10.0 mi Calm Calm - N/A   Mostly Cloudy
11:56 PM 32.0 °F - 28.0 °F 85% 29.99 in 10.0 mi Calm Calm - N/A   Scattered Clouds